Year,Month,Day,Hour,Minute,Value (Times are PST for temperature in C)
2016,08,11,00,00,17.20
2016,08,11,00,01,17.20
2016,08,11,00,02,17.20
2016,08,11,00,03,17.20
2016,08,11,00,04,17.20
2016,08,11,00,05,17.20
2016,08,11,00,06,17.20
2016,08,11,00,07,17.20
2016,08,11,00,08,17.10
2016,08,11,00,09,17.10
2016,08,11,00,10,17.10
2016,08,11,00,11,17.10
2016,08,11,00,12,17.10
2016,08,11,00,13,17.00
2016,08,11,00,14,17.00
2016,08,11,00,15,17.00
2016,08,11,00,16,16.90
2016,08,11,00,17,16.90
2016,08,11,00,18,16.80
2016,08,11,00,19,16.80
2016,08,11,00,20,16.80
2016,08,11,00,21,16.80
2016,08,11,00,22,16.70
2016,08,11,00,23,16.70
2016,08,11,00,24,16.70
2016,08,11,00,25,16.70
2016,08,11,00,26,16.70
2016,08,11,00,27,16.60
2016,08,11,00,28,16.60
2016,08,11,00,29,16.60
2016,08,11,00,30,16.60
2016,08,11,00,31,16.60
2016,08,11,00,32,16.50
2016,08,11,00,33,16.50
2016,08,11,00,34,16.50
2016,08,11,00,35,16.50
2016,08,11,00,36,16.60
2016,08,11,00,37,16.60
2016,08,11,00,38,16.60
2016,08,11,00,39,16.50
2016,08,11,00,40,16.60
2016,08,11,00,41,16.50
2016,08,11,00,42,16.60
2016,08,11,00,43,16.60
2016,08,11,00,44,16.60
2016,08,11,00,45,16.60
2016,08,11,00,46,16.60
2016,08,11,00,47,16.50
2016,08,11,00,48,16.50
2016,08,11,00,49,16.40
2016,08,11,00,50,16.40
2016,08,11,00,51,16.40
2016,08,11,00,52,16.30
2016,08,11,00,53,16.30
2016,08,11,00,54,16.30
2016,08,11,00,55,16.20
2016,08,11,00,56,16.20
2016,08,11,00,57,16.10
2016,08,11,00,58,16.10
2016,08,11,00,59,16.00
2016,08,11,01,00,16.00
2016,08,11,01,01,15.90
2016,08,11,01,02,15.90
2016,08,11,01,03,15.80
2016,08,11,01,04,15.80
2016,08,11,01,05,15.70
2016,08,11,01,06,15.70
2016,08,11,01,07,15.70
2016,08,11,01,08,15.60
2016,08,11,01,09,15.50
2016,08,11,01,10,15.50
2016,08,11,01,11,15.40
2016,08,11,01,12,15.40
2016,08,11,01,13,15.40
2016,08,11,01,14,15.30
2016,08,11,01,15,15.30
2016,08,11,01,16,15.20
2016,08,11,01,17,15.20
2016,08,11,01,18,15.20
2016,08,11,01,19,15.10
2016,08,11,01,20,15.00
2016,08,11,01,21,15.00
2016,08,11,01,22,15.00
2016,08,11,01,23,14.90
2016,08,11,01,24,14.90
2016,08,11,01,25,14.80
2016,08,11,01,26,14.80
2016,08,11,01,27,14.80
2016,08,11,01,28,14.70
2016,08,11,01,29,14.70
2016,08,11,01,30,14.70
2016,08,11,01,31,14.70
2016,08,11,01,32,14.60
2016,08,11,01,33,14.60
2016,08,11,01,34,14.60
2016,08,11,01,35,14.50
2016,08,11,01,36,14.50
2016,08,11,01,37,14.40
2016,08,11,01,38,14.40
2016,08,11,01,39,14.30
2016,08,11,01,40,14.30
2016,08,11,01,41,14.30
2016,08,11,01,42,14.30
2016,08,11,01,43,14.20
2016,08,11,01,44,14.20
2016,08,11,01,45,14.20
2016,08,11,01,46,14.20
2016,08,11,01,47,14.10
2016,08,11,01,48,14.10
2016,08,11,01,49,14.10
2016,08,11,01,50,14.10
2016,08,11,01,51,14.00
2016,08,11,01,52,14.00
2016,08,11,01,53,13.90
2016,08,11,01,54,13.90
2016,08,11,01,55,13.90
2016,08,11,01,56,13.90
2016,08,11,01,57,13.90
2016,08,11,01,58,13.90
2016,08,11,01,59,13.80
2016,08,11,02,00,13.80
2016,08,11,02,01,13.80
2016,08,11,02,02,13.80
2016,08,11,02,03,13.80
2016,08,11,02,04,13.70
2016,08,11,02,05,13.70
2016,08,11,02,06,13.70
2016,08,11,02,07,13.70
2016,08,11,02,08,13.70
2016,08,11,02,09,13.60
2016,08,11,02,10,13.60
2016,08,11,02,11,13.60
2016,08,11,02,12,13.60
2016,08,11,02,13,13.60
2016,08,11,02,14,13.50
2016,08,11,02,15,13.50
2016,08,11,02,16,13.50
2016,08,11,02,17,13.50
2016,08,11,02,18,13.40
2016,08,11,02,19,13.40
2016,08,11,02,20,13.40
2016,08,11,02,21,13.40
2016,08,11,02,22,13.40
2016,08,11,02,23,13.30
2016,08,11,02,24,13.30
2016,08,11,02,25,13.30
2016,08,11,02,26,13.30
2016,08,11,02,27,13.30
2016,08,11,02,28,13.30
2016,08,11,02,29,13.30
2016,08,11,02,30,13.30
2016,08,11,02,31,13.20
2016,08,11,02,32,13.20
2016,08,11,02,33,13.20
2016,08,11,02,34,13.20
2016,08,11,02,35,13.20
2016,08,11,02,36,13.20
2016,08,11,02,37,13.10
2016,08,11,02,38,13.10
2016,08,11,02,39,13.10
2016,08,11,02,40,13.10
2016,08,11,02,41,13.10
2016,08,11,02,42,13.10
2016,08,11,02,43,13.10
2016,08,11,02,44,13.10
2016,08,11,02,45,13.00
2016,08,11,02,46,13.00
2016,08,11,02,47,13.00
2016,08,11,02,48,13.00
2016,08,11,02,49,13.00
2016,08,11,02,50,12.90
2016,08,11,02,51,12.90
2016,08,11,02,52,12.90
2016,08,11,02,53,12.90
2016,08,11,02,54,12.90
2016,08,11,02,55,12.90
2016,08,11,02,56,12.90
2016,08,11,02,57,12.80
2016,08,11,02,58,12.80
2016,08,11,02,59,12.80
2016,08,11,03,00,12.80
2016,08,11,03,01,12.80
2016,08,11,03,02,12.80
2016,08,11,03,03,12.80
2016,08,11,03,04,12.80
2016,08,11,03,05,12.80
2016,08,11,03,06,12.80
2016,08,11,03,07,12.80
2016,08,11,03,08,12.80
2016,08,11,03,09,12.80
2016,08,11,03,10,12.80
2016,08,11,03,11,12.70
2016,08,11,03,12,12.80
2016,08,11,03,13,12.70
2016,08,11,03,14,12.70
2016,08,11,03,15,12.70
2016,08,11,03,16,12.70
2016,08,11,03,17,12.70
2016,08,11,03,18,12.70
2016,08,11,03,19,12.70
2016,08,11,03,20,12.70
2016,08,11,03,21,12.70
2016,08,11,03,22,12.60
2016,08,11,03,23,12.60
2016,08,11,03,24,12.60
2016,08,11,03,25,12.60
2016,08,11,03,26,12.60
2016,08,11,03,27,12.60
2016,08,11,03,28,12.60
2016,08,11,03,29,12.60
2016,08,11,03,30,12.50
2016,08,11,03,31,12.50
2016,08,11,03,32,12.50
2016,08,11,03,33,12.40
2016,08,11,03,34,12.40
2016,08,11,03,35,12.40
2016,08,11,03,36,12.40
2016,08,11,03,37,12.40
2016,08,11,03,38,12.40
2016,08,11,03,39,12.40
2016,08,11,03,40,12.30
2016,08,11,03,41,12.30
2016,08,11,03,42,12.30
2016,08,11,03,43,12.30
2016,08,11,03,44,12.30
2016,08,11,03,45,12.30
2016,08,11,03,46,12.30
2016,08,11,03,47,12.20
2016,08,11,03,48,12.20
2016,08,11,03,49,12.20
2016,08,11,03,50,12.20
2016,08,11,03,51,12.20
2016,08,11,03,52,12.20
2016,08,11,03,53,12.20
2016,08,11,03,54,12.10
2016,08,11,03,55,12.10
2016,08,11,03,56,12.10
2016,08,11,03,57,12.10
2016,08,11,03,58,12.10
2016,08,11,03,59,12.10
2016,08,11,04,00,12.10
2016,08,11,04,01,12.10
2016,08,11,04,02,12.10
2016,08,11,04,03,12.10
2016,08,11,04,04,12.10
2016,08,11,04,05,12.00
2016,08,11,04,06,12.00
2016,08,11,04,07,12.00
2016,08,11,04,08,12.00
2016,08,11,04,09,12.00
2016,08,11,04,10,12.00
2016,08,11,04,11,12.00
2016,08,11,04,12,12.00
2016,08,11,04,13,12.00
2016,08,11,04,14,12.00
2016,08,11,04,15,11.90
2016,08,11,04,16,11.90
2016,08,11,04,17,11.90
2016,08,11,04,18,11.90
2016,08,11,04,19,11.90
2016,08,11,04,20,11.90
2016,08,11,04,21,11.90
2016,08,11,04,22,11.90
2016,08,11,04,23,11.80
2016,08,11,04,24,11.80
2016,08,11,04,25,11.80
2016,08,11,04,26,11.80
2016,08,11,04,27,11.80
2016,08,11,04,28,11.80
2016,08,11,04,29,11.80
2016,08,11,04,30,11.80
2016,08,11,04,31,11.80
2016,08,11,04,32,11.80
2016,08,11,04,33,11.80
2016,08,11,04,34,11.80
2016,08,11,04,35,11.80
2016,08,11,04,36,11.80
2016,08,11,04,37,11.80
2016,08,11,04,38,11.80
2016,08,11,04,39,11.80
2016,08,11,04,40,11.80
2016,08,11,04,41,11.80
2016,08,11,04,42,11.80
2016,08,11,04,43,11.80
2016,08,11,04,44,11.80
2016,08,11,04,45,11.80
2016,08,11,04,46,11.80
2016,08,11,04,47,11.80
2016,08,11,04,48,11.70
2016,08,11,04,49,11.70
2016,08,11,04,50,11.70
2016,08,11,04,51,11.70
2016,08,11,04,52,11.70
2016,08,11,04,53,11.70
2016,08,11,04,54,11.70
2016,08,11,04,55,11.70
2016,08,11,04,56,11.70
2016,08,11,04,57,11.70
2016,08,11,04,58,11.70
2016,08,11,04,59,11.70
2016,08,11,05,00,11.70
2016,08,11,05,01,11.60
2016,08,11,05,02,11.60
2016,08,11,05,03,11.60
2016,08,11,05,04,11.60
2016,08,11,05,05,11.60
2016,08,11,05,06,11.60
2016,08,11,05,07,11.50
2016,08,11,05,08,11.50
2016,08,11,05,09,11.50
2016,08,11,05,10,11.50
2016,08,11,05,11,11.50
2016,08,11,05,12,11.50
2016,08,11,05,13,11.50
2016,08,11,05,14,11.50
2016,08,11,05,15,11.50
2016,08,11,05,16,11.50
2016,08,11,05,17,11.50
2016,08,11,05,18,11.40
2016,08,11,05,19,11.40
2016,08,11,05,20,11.40
2016,08,11,05,21,11.40
2016,08,11,05,22,11.40
2016,08,11,05,23,11.40
2016,08,11,05,24,11.40
2016,08,11,05,25,11.40
2016,08,11,05,26,11.40
2016,08,11,05,27,11.30
2016,08,11,05,28,11.30
2016,08,11,05,29,11.30
2016,08,11,05,30,11.30
2016,08,11,05,31,11.30
2016,08,11,05,32,11.30
2016,08,11,05,33,11.30
2016,08,11,05,34,11.30
2016,08,11,05,35,11.30
2016,08,11,05,36,11.20
2016,08,11,05,37,11.20
2016,08,11,05,38,11.20
2016,08,11,05,39,11.20
2016,08,11,05,40,11.20
2016,08,11,05,41,11.20
2016,08,11,05,42,11.20
2016,08,11,05,43,11.20
2016,08,11,05,44,11.20
2016,08,11,05,45,11.20
2016,08,11,05,46,11.20
2016,08,11,05,47,11.20
2016,08,11,05,48,11.20
2016,08,11,05,49,11.20
2016,08,11,05,50,11.10
2016,08,11,05,51,11.10
2016,08,11,05,52,11.10
2016,08,11,05,53,11.10
2016,08,11,05,54,11.10
2016,08,11,05,55,11.10
2016,08,11,05,56,11.10
2016,08,11,05,57,11.10
2016,08,11,05,58,11.10
2016,08,11,05,59,11.00
2016,08,11,06,00,11.00
2016,08,11,06,01,11.00
2016,08,11,06,02,11.00
2016,08,11,06,03,11.00
2016,08,11,06,04,11.00
2016,08,11,06,05,10.90
2016,08,11,06,06,10.90
2016,08,11,06,07,10.90
2016,08,11,06,08,10.90
2016,08,11,06,09,10.90
2016,08,11,06,10,10.90
2016,08,11,06,11,10.90
2016,08,11,06,12,10.90
2016,08,11,06,13,10.90
2016,08,11,06,14,11.00
2016,08,11,06,15,10.90
2016,08,11,06,16,10.90
2016,08,11,06,17,10.90
2016,08,11,06,18,10.90
2016,08,11,06,19,10.90
2016,08,11,06,20,10.90
2016,08,11,06,21,10.90
2016,08,11,06,22,10.90
2016,08,11,06,23,10.90
2016,08,11,06,24,10.90
2016,08,11,06,25,10.80
2016,08,11,06,26,10.80
2016,08,11,06,27,10.80
2016,08,11,06,28,10.80
2016,08,11,06,29,10.80
2016,08,11,06,30,10.80
2016,08,11,06,31,10.80
2016,08,11,06,32,10.80
2016,08,11,06,33,10.80
2016,08,11,06,34,10.80
2016,08,11,06,35,10.80
2016,08,11,06,36,10.80
2016,08,11,06,37,10.80
2016,08,11,06,38,10.80
2016,08,11,06,39,10.80
2016,08,11,06,40,10.80
2016,08,11,06,41,10.80
2016,08,11,06,42,10.80
2016,08,11,06,43,10.80
2016,08,11,06,44,10.80
2016,08,11,06,45,10.80
2016,08,11,06,46,10.80
2016,08,11,06,47,10.80
2016,08,11,06,48,10.80
2016,08,11,06,49,10.80
2016,08,11,06,50,10.80
2016,08,11,06,51,10.70
2016,08,11,06,52,10.70
2016,08,11,06,53,10.80
2016,08,11,06,54,10.70
2016,08,11,06,55,10.80
2016,08,11,06,56,10.80
2016,08,11,06,57,10.80
2016,08,11,06,58,10.80
2016,08,11,06,59,10.80
2016,08,11,07,00,10.80
2016,08,11,07,01,10.80
2016,08,11,07,02,10.80
2016,08,11,07,03,10.80
2016,08,11,07,04,10.80
2016,08,11,07,05,10.80
2016,08,11,07,06,10.80
2016,08,11,07,07,10.80
2016,08,11,07,08,10.80
2016,08,11,07,09,10.80
2016,08,11,07,10,10.80
2016,08,11,07,11,10.80
2016,08,11,07,12,10.80
2016,08,11,07,13,10.80
2016,08,11,07,14,10.80
2016,08,11,07,15,10.80
2016,08,11,07,16,10.80
2016,08,11,07,17,10.80
2016,08,11,07,18,10.80
2016,08,11,07,19,10.80
2016,08,11,07,20,10.80
2016,08,11,07,21,10.80
2016,08,11,07,22,10.80
2016,08,11,07,23,10.80
2016,08,11,07,24,10.80
2016,08,11,07,25,10.80
2016,08,11,07,26,10.80
2016,08,11,07,27,10.80
2016,08,11,07,28,10.80
2016,08,11,07,29,10.80
2016,08,11,07,30,10.80
2016,08,11,07,31,10.80
2016,08,11,07,32,10.80
2016,08,11,07,33,10.80
2016,08,11,07,34,10.90
2016,08,11,07,35,10.90
2016,08,11,07,36,10.90
2016,08,11,07,37,10.90
2016,08,11,07,38,11.00
2016,08,11,07,39,11.00
2016,08,11,07,40,11.10
2016,08,11,07,41,11.10
2016,08,11,07,42,11.20
2016,08,11,07,43,11.30
2016,08,11,07,44,11.30
2016,08,11,07,45,11.40
2016,08,11,07,46,11.40
2016,08,11,07,47,11.50
2016,08,11,07,48,11.60
2016,08,11,07,49,11.60
2016,08,11,07,50,11.70
2016,08,11,07,51,11.80
2016,08,11,07,52,11.80
2016,08,11,07,53,11.90
2016,08,11,07,54,12.00
2016,08,11,07,55,12.10
2016,08,11,07,56,12.20
2016,08,11,07,57,12.20
2016,08,11,07,58,12.30
2016,08,11,07,59,12.40
2016,08,11,08,00,12.40
2016,08,11,08,01,12.50
2016,08,11,08,02,12.60
2016,08,11,08,03,12.60
2016,08,11,08,04,12.70
2016,08,11,08,05,12.80
2016,08,11,08,06,12.80
2016,08,11,08,07,12.80
2016,08,11,08,08,12.90
2016,08,11,08,09,12.90
2016,08,11,08,10,12.90
2016,08,11,08,11,13.00
2016,08,11,08,12,13.00
2016,08,11,08,13,13.10
2016,08,11,08,14,13.10
2016,08,11,08,15,13.10
2016,08,11,08,16,13.20
2016,08,11,08,17,13.20
2016,08,11,08,18,13.20
2016,08,11,08,19,13.30
2016,08,11,08,20,13.30
2016,08,11,08,21,13.30
2016,08,11,08,22,13.30
2016,08,11,08,23,13.30
2016,08,11,08,24,13.40
2016,08,11,08,25,13.40
2016,08,11,08,26,13.40
2016,08,11,08,27,13.50
2016,08,11,08,28,13.50
2016,08,11,08,29,13.60
2016,08,11,08,30,13.70
2016,08,11,08,31,13.70
2016,08,11,08,32,13.80
2016,08,11,08,33,13.90
2016,08,11,08,34,14.00
2016,08,11,08,35,14.00
2016,08,11,08,36,14.10
2016,08,11,08,37,14.20
2016,08,11,08,38,14.30
2016,08,11,08,39,14.30
2016,08,11,08,40,14.40
2016,08,11,08,41,14.50
2016,08,11,08,42,14.60
2016,08,11,08,43,14.70
2016,08,11,08,44,14.80
2016,08,11,08,45,14.90
2016,08,11,08,46,15.00
2016,08,11,08,47,15.00
2016,08,11,08,48,15.10
2016,08,11,08,49,15.20
2016,08,11,08,50,15.30
2016,08,11,08,51,15.30
2016,08,11,08,52,15.40
2016,08,11,08,53,15.50
2016,08,11,08,54,15.50
2016,08,11,08,55,15.50
2016,08,11,08,56,15.60
2016,08,11,08,57,15.70
2016,08,11,08,58,15.70
2016,08,11,08,59,15.80
2016,08,11,09,00,15.80
2016,08,11,09,01,15.90
2016,08,11,09,02,15.90
2016,08,11,09,03,15.90
2016,08,11,09,04,15.90
2016,08,11,09,05,15.90
2016,08,11,09,06,16.00
2016,08,11,09,07,16.10
2016,08,11,09,08,16.10
2016,08,11,09,09,16.10
2016,08,11,09,10,16.20
2016,08,11,09,11,16.30
2016,08,11,09,12,16.30
2016,08,11,09,13,16.40
2016,08,11,09,14,16.40
2016,08,11,09,15,16.40
2016,08,11,09,16,16.50
2016,08,11,09,17,16.50
2016,08,11,09,18,16.60
2016,08,11,09,19,16.60
2016,08,11,09,20,16.70
2016,08,11,09,21,16.70
2016,08,11,09,22,16.70
2016,08,11,09,23,16.80
2016,08,11,09,24,16.80
2016,08,11,09,25,16.80
2016,08,11,09,26,16.80
2016,08,11,09,27,16.80
2016,08,11,09,28,16.90
2016,08,11,09,29,16.90
2016,08,11,09,30,16.90
2016,08,11,09,31,17.00
2016,08,11,09,32,17.00
2016,08,11,09,33,17.10
2016,08,11,09,34,17.10
2016,08,11,09,35,17.10
2016,08,11,09,36,17.20
2016,08,11,09,37,17.20
2016,08,11,09,38,17.30
2016,08,11,09,39,17.30
2016,08,11,09,40,17.40
2016,08,11,09,41,17.50
2016,08,11,09,42,17.50
2016,08,11,09,43,17.60
2016,08,11,09,44,17.70
2016,08,11,09,45,17.70
2016,08,11,09,46,17.80
2016,08,11,09,47,17.90
2016,08,11,09,48,17.90
2016,08,11,09,49,18.00
2016,08,11,09,50,18.10
2016,08,11,09,51,18.10
2016,08,11,09,52,18.20
2016,08,11,09,53,18.20
2016,08,11,09,54,18.30
2016,08,11,09,55,18.30
2016,08,11,09,56,18.30
2016,08,11,09,57,18.30
2016,08,11,09,58,18.30
2016,08,11,09,59,18.40
2016,08,11,10,00,18.40
2016,08,11,10,01,18.40
2016,08,11,10,02,18.40
2016,08,11,10,03,18.50
2016,08,11,10,04,18.50
2016,08,11,10,05,18.60
2016,08,11,10,06,18.60
2016,08,11,10,07,18.60
2016,08,11,10,08,18.70
2016,08,11,10,09,18.70
2016,08,11,10,10,18.80
2016,08,11,10,11,18.80
2016,08,11,10,12,18.90
2016,08,11,10,13,19.00
2016,08,11,10,14,19.00
2016,08,11,10,15,19.00
2016,08,11,10,16,19.10
2016,08,11,10,17,19.10
2016,08,11,10,18,19.10
2016,08,11,10,19,19.10
2016,08,11,10,20,19.10
2016,08,11,10,21,19.10
2016,08,11,10,22,19.20
2016,08,11,10,23,19.20
2016,08,11,10,24,19.20
2016,08,11,10,25,19.20
2016,08,11,10,26,19.30
2016,08,11,10,27,19.30
2016,08,11,10,28,19.40
2016,08,11,10,29,19.50
2016,08,11,10,30,19.60
2016,08,11,10,31,19.70
2016,08,11,10,32,19.80
2016,08,11,10,33,19.90
2016,08,11,10,34,20.00
2016,08,11,10,35,20.00
2016,08,11,10,36,19.90
2016,08,11,10,37,19.90
2016,08,11,10,38,19.90
2016,08,11,10,39,19.90
2016,08,11,10,40,19.90
2016,08,11,10,41,20.00
2016,08,11,10,42,20.00
2016,08,11,10,43,20.00
2016,08,11,10,44,20.10
2016,08,11,10,45,20.10
2016,08,11,10,46,20.10
2016,08,11,10,47,20.10
2016,08,11,10,48,20.10
2016,08,11,10,49,20.20
2016,08,11,10,50,20.30
2016,08,11,10,51,20.50
2016,08,11,10,52,20.60
2016,08,11,10,53,20.60
2016,08,11,10,54,20.70
2016,08,11,10,55,20.70
2016,08,11,10,56,20.70
2016,08,11,10,57,20.80
2016,08,11,10,58,20.80
2016,08,11,10,59,20.90
2016,08,11,11,00,21.00
2016,08,11,11,01,21.10
2016,08,11,11,02,21.10
2016,08,11,11,03,21.10
2016,08,11,11,04,21.10
2016,08,11,11,05,21.10
2016,08,11,11,06,21.10
2016,08,11,11,07,21.10
2016,08,11,11,08,21.10
2016,08,11,11,09,21.20
2016,08,11,11,10,21.20
2016,08,11,11,11,21.30
2016,08,11,11,12,21.30
2016,08,11,11,13,21.40
2016,08,11,11,14,21.50
2016,08,11,11,15,21.60
2016,08,11,11,16,21.70
2016,08,11,11,17,21.80
2016,08,11,11,18,21.90
2016,08,11,11,19,21.90
2016,08,11,11,20,21.90
2016,08,11,11,21,21.90
2016,08,11,11,22,21.90
2016,08,11,11,23,21.90
2016,08,11,11,24,21.90
2016,08,11,11,25,21.90
2016,08,11,11,26,22.00
2016,08,11,11,27,22.00
2016,08,11,11,28,22.00
2016,08,11,11,29,22.00
2016,08,11,11,30,22.10
2016,08,11,11,31,22.10
2016,08,11,11,32,22.10
2016,08,11,11,33,22.20
2016,08,11,11,34,22.20
2016,08,11,11,35,22.30
2016,08,11,11,36,22.40
2016,08,11,11,37,22.40
2016,08,11,11,38,22.40
2016,08,11,11,39,22.50
2016,08,11,11,40,22.50
2016,08,11,11,41,22.60
2016,08,11,11,42,22.60
2016,08,11,11,43,22.60
2016,08,11,11,44,22.70
2016,08,11,11,45,22.70
2016,08,11,11,46,22.80
2016,08,11,11,47,22.80
2016,08,11,11,48,22.80
2016,08,11,11,49,22.80
2016,08,11,11,50,22.80
2016,08,11,11,51,22.80
2016,08,11,11,52,22.80
2016,08,11,11,53,22.90
2016,08,11,11,54,23.00
2016,08,11,11,55,23.10
2016,08,11,11,56,23.20
2016,08,11,11,57,23.20
2016,08,11,11,58,23.30
2016,08,11,11,59,23.30
2016,08,11,12,00,23.40
2016,08,11,12,01,23.40
2016,08,11,12,02,23.50
2016,08,11,12,03,23.60
2016,08,11,12,04,23.60
2016,08,11,12,05,23.60
2016,08,11,12,06,23.60
2016,08,11,12,07,23.70
2016,08,11,12,08,23.80
2016,08,11,12,09,23.80
2016,08,11,12,10,23.90
2016,08,11,12,11,23.90
2016,08,11,12,12,24.00
2016,08,11,12,13,24.00
2016,08,11,12,14,24.10
2016,08,11,12,15,24.10
2016,08,11,12,16,24.10
2016,08,11,12,17,24.20
2016,08,11,12,18,24.20
2016,08,11,12,19,24.30
2016,08,11,12,20,24.30
2016,08,11,12,21,24.30
2016,08,11,12,22,24.40
2016,08,11,12,23,24.40
2016,08,11,12,24,24.40
2016,08,11,12,25,24.40
2016,08,11,12,26,24.40
2016,08,11,12,27,24.50
2016,08,11,12,28,24.50
2016,08,11,12,29,24.60
2016,08,11,12,30,24.60
2016,08,11,12,31,24.60
2016,08,11,12,32,24.70
2016,08,11,12,33,24.70
2016,08,11,12,34,24.80
2016,08,11,12,35,24.80
2016,08,11,12,36,24.80
2016,08,11,12,37,24.90
2016,08,11,12,38,24.90
2016,08,11,12,39,24.90
2016,08,11,12,40,25.00
2016,08,11,12,41,25.10
2016,08,11,12,42,25.20
2016,08,11,12,43,25.20
2016,08,11,12,44,25.20
2016,08,11,12,45,25.30
2016,08,11,12,46,25.30
2016,08,11,12,47,25.30
2016,08,11,12,48,25.40
2016,08,11,12,49,25.40
2016,08,11,12,50,25.50
2016,08,11,12,51,25.50
2016,08,11,12,52,25.50
2016,08,11,12,53,25.60
2016,08,11,12,54,25.60
2016,08,11,12,55,25.60
2016,08,11,12,56,25.60
2016,08,11,12,57,25.70
2016,08,11,12,58,25.70
2016,08,11,12,59,25.70
2016,08,11,13,00,25.70
2016,08,11,13,01,25.70
2016,08,11,13,02,25.60
2016,08,11,13,03,25.70
2016,08,11,13,04,25.70
2016,08,11,13,05,25.80
2016,08,11,13,06,25.80
2016,08,11,13,07,25.90
2016,08,11,13,08,25.90
2016,08,11,13,09,26.00
2016,08,11,13,10,26.10
2016,08,11,13,11,26.10
2016,08,11,13,12,26.20
2016,08,11,13,13,26.20
2016,08,11,13,14,26.30
2016,08,11,13,15,26.30
2016,08,11,13,16,26.40
2016,08,11,13,17,26.40
2016,08,11,13,18,26.40
2016,08,11,13,19,26.50
2016,08,11,13,20,26.50
2016,08,11,13,21,26.60
2016,08,11,13,22,26.70
2016,08,11,13,23,26.90
2016,08,11,13,24,27.00
2016,08,11,13,25,27.00
2016,08,11,13,26,27.10
2016,08,11,13,27,27.10
2016,08,11,13,28,27.20
2016,08,11,13,29,27.20
2016,08,11,13,30,27.30
2016,08,11,13,31,27.30
2016,08,11,13,32,27.40
2016,08,11,13,33,27.40
2016,08,11,13,34,27.40
2016,08,11,13,35,27.50
2016,08,11,13,36,27.60
2016,08,11,13,37,27.70
2016,08,11,13,38,27.70
2016,08,11,13,39,27.70
2016,08,11,13,40,27.80
2016,08,11,13,41,27.80
2016,08,11,13,42,27.80
2016,08,11,13,43,27.80
2016,08,11,13,44,27.80
2016,08,11,13,45,27.80
2016,08,11,13,46,27.80
2016,08,11,13,47,27.80
2016,08,11,13,48,27.80
2016,08,11,13,49,27.80
2016,08,11,13,50,27.80
2016,08,11,13,51,27.80
2016,08,11,13,52,27.90
2016,08,11,13,53,28.00
2016,08,11,13,54,28.00
2016,08,11,13,55,28.00
2016,08,11,13,56,28.00
2016,08,11,13,57,27.90
2016,08,11,13,58,27.90
2016,08,11,13,59,27.90
2016,08,11,14,00,28.00
2016,08,11,14,01,28.00
2016,08,11,14,02,28.10
2016,08,11,14,03,28.10
2016,08,11,14,04,28.20
2016,08,11,14,05,28.20
2016,08,11,14,06,28.10
2016,08,11,14,07,28.10
2016,08,11,14,08,28.00
2016,08,11,14,09,27.90
2016,08,11,14,10,27.80
2016,08,11,14,11,27.80
2016,08,11,14,12,27.80
2016,08,11,14,13,27.80
2016,08,11,14,14,27.90
2016,08,11,14,15,27.90
2016,08,11,14,16,28.00
2016,08,11,14,17,28.00
2016,08,11,14,18,28.10
2016,08,11,14,19,28.20
2016,08,11,14,20,28.30
2016,08,11,14,21,28.30
2016,08,11,14,22,28.30
2016,08,11,14,23,28.40
2016,08,11,14,24,28.50
2016,08,11,14,25,28.60
2016,08,11,14,26,28.60
2016,08,11,14,27,28.70
2016,08,11,14,28,28.70
2016,08,11,14,29,28.70
2016,08,11,14,30,28.80
2016,08,11,14,31,28.80
2016,08,11,14,32,28.80
2016,08,11,14,33,28.80
2016,08,11,14,34,28.80
2016,08,11,14,35,28.80
2016,08,11,14,36,28.80
2016,08,11,14,37,28.80
2016,08,11,14,38,28.80
2016,08,11,14,39,28.90
2016,08,11,14,40,29.00
2016,08,11,14,41,29.20
2016,08,11,14,42,29.30
2016,08,11,14,43,29.30
2016,08,11,14,44,29.40
2016,08,11,14,45,29.40
2016,08,11,14,46,29.40
2016,08,11,14,47,29.40
2016,08,11,14,48,29.40
2016,08,11,14,49,29.40
2016,08,11,14,50,29.40
2016,08,11,14,51,29.40
2016,08,11,14,52,29.40
2016,08,11,14,53,29.30
2016,08,11,14,54,29.20
2016,08,11,14,55,29.20
2016,08,11,14,56,29.20
2016,08,11,14,57,29.20
2016,08,11,14,58,29.30
2016,08,11,14,59,29.40
2016,08,11,15,00,29.40
2016,08,11,15,01,29.50
2016,08,11,15,02,29.60
2016,08,11,15,03,29.70
2016,08,11,15,04,29.70
2016,08,11,15,05,29.70
2016,08,11,15,06,29.70
2016,08,11,15,07,29.70
2016,08,11,15,08,29.80
2016,08,11,15,09,29.80
2016,08,11,15,10,29.80
2016,08,11,15,11,29.80
2016,08,11,15,12,29.80
2016,08,11,15,13,29.80
2016,08,11,15,14,29.90
2016,08,11,15,15,29.90
2016,08,11,15,16,30.00
2016,08,11,15,17,30.10
2016,08,11,15,18,30.10
2016,08,11,15,19,30.10
2016,08,11,15,20,30.10
2016,08,11,15,21,30.20
2016,08,11,15,22,30.20
2016,08,11,15,23,30.30
2016,08,11,15,24,30.20
2016,08,11,15,25,30.20
2016,08,11,15,26,30.20
2016,08,11,15,27,30.10
2016,08,11,15,28,30.10
2016,08,11,15,29,30.20
2016,08,11,15,30,30.20
2016,08,11,15,31,30.20
2016,08,11,15,32,30.20
2016,08,11,15,33,30.20
2016,08,11,15,34,30.20
2016,08,11,15,35,30.20
2016,08,11,15,36,30.20
2016,08,11,15,37,30.20
2016,08,11,15,38,30.10
2016,08,11,15,39,30.10
2016,08,11,15,40,30.00
2016,08,11,15,41,30.00
2016,08,11,15,42,30.10
2016,08,11,15,43,30.10
2016,08,11,15,44,30.20
2016,08,11,15,45,30.20
2016,08,11,15,46,30.30
2016,08,11,15,47,30.30
2016,08,11,15,48,30.30
2016,08,11,15,49,30.30
2016,08,11,15,50,30.30
2016,08,11,15,51,30.30
2016,08,11,15,52,30.30
2016,08,11,15,53,30.30
2016,08,11,15,54,30.40
2016,08,11,15,55,30.40
2016,08,11,15,56,30.50
2016,08,11,15,57,30.50
2016,08,11,15,58,30.50
2016,08,11,15,59,30.40
2016,08,11,16,00,30.40
2016,08,11,16,01,30.40
2016,08,11,16,02,30.40
2016,08,11,16,03,30.40
2016,08,11,16,04,30.40
2016,08,11,16,05,30.50
2016,08,11,16,06,30.60
2016,08,11,16,07,30.60
2016,08,11,16,08,30.70
2016,08,11,16,09,30.80
2016,08,11,16,10,30.90
2016,08,11,16,11,30.90
2016,08,11,16,12,30.90
2016,08,11,16,13,31.00
2016,08,11,16,14,31.10
2016,08,11,16,15,31.00
2016,08,11,16,16,31.00
2016,08,11,16,17,31.00
2016,08,11,16,18,31.10
2016,08,11,16,19,31.10
2016,08,11,16,20,31.10
2016,08,11,16,21,31.20
2016,08,11,16,22,31.20
2016,08,11,16,23,31.10
2016,08,11,16,24,31.00
2016,08,11,16,25,31.00
2016,08,11,16,26,31.00
2016,08,11,16,27,31.00
2016,08,11,16,28,31.00
2016,08,11,16,29,31.00
2016,08,11,16,30,31.00
2016,08,11,16,31,31.00
2016,08,11,16,32,31.10
2016,08,11,16,33,31.20
2016,08,11,16,34,31.20
2016,08,11,16,35,31.30
2016,08,11,16,36,31.30
2016,08,11,16,37,31.20
2016,08,11,16,38,31.30
2016,08,11,16,39,31.30
2016,08,11,16,40,31.30
2016,08,11,16,41,31.30
2016,08,11,16,42,31.30
2016,08,11,16,43,31.30
2016,08,11,16,44,31.40
2016,08,11,16,45,31.40
2016,08,11,16,46,31.40
2016,08,11,16,47,31.50
2016,08,11,16,48,31.60
2016,08,11,16,49,31.60
2016,08,11,16,50,31.60
2016,08,11,16,51,31.60
2016,08,11,16,52,31.60
2016,08,11,16,53,31.50
2016,08,11,16,54,31.40
2016,08,11,16,55,31.40
2016,08,11,16,56,31.30
2016,08,11,16,57,31.30
2016,08,11,16,58,31.40
2016,08,11,16,59,31.40
2016,08,11,17,00,31.40
2016,08,11,17,01,31.40
2016,08,11,17,02,31.30
2016,08,11,17,03,31.20
2016,08,11,17,04,31.20
2016,08,11,17,05,31.20
2016,08,11,17,06,31.20
2016,08,11,17,07,31.20
2016,08,11,17,08,31.20
2016,08,11,17,09,31.20
2016,08,11,17,10,31.20
2016,08,11,17,11,31.30
2016,08,11,17,12,31.30
2016,08,11,17,13,31.30
2016,08,11,17,14,31.40
2016,08,11,17,15,31.40
2016,08,11,17,16,31.40
2016,08,11,17,17,31.40
2016,08,11,17,18,31.40
2016,08,11,17,19,31.40